Home   Weather   Limerick   Past weeks
Flag for Ireland

Past Weather in Limerick, Ireland — Yesterday and Last 2 Weeks

Now
61 °F

Passing clouds.


Feels Like: 61 °F
Forecast: 67 / 56 °F
Wind: 3 mph from Southeast

Location: Shannon Airport

Current Time: Jul 16, 2019 at 3:39:24 am

Latest Report: Jul 16, 2019 at 3:00 am


Visibility: N/A

Pressure: 30.09 "Hg

Humidity: 94%

Dew Point: 59 °F

Location of LimerickLocation

Past Weather in Limerick — Graph

°F

Limerick Temperature Yesterday

Maximum temperature yesterday: 75 °F (at 4:30 pm)
Minimum temperature yesterday: 57 °F (at 4:00 am)
Average temperature yesterday: 64 °F

High & Low Weather Summary for the Past Weeks

 TemperatureHumidityPressure
High75 °F (Jul 14, 5:30 pm)100% (Jul 5, 5:00 am)30.42 "Hg (Jul 5, 5:00 am)
Low46 °F (Jul 3, 5:00 am)38% (Jul 14, 4:00 pm)29.86 "Hg (Jul 11, 1:00 am)
Average61 °F76%30.17 "Hg
* Reported Jul 1 2:00 am — Jul 16 2:30 am, Limerick. Weather by CustomWeather, © 2019

Note: Actual official high and low records may vary slightly from our data, if they occured in-between our weather recording intervals... More about our weather records

Advertising

Limerick Weather History for the Previous 24 Hours

Scroll right to see more
 ConditionsComfort  
Time TempWeatherWind HumidityBarometerVisibility
2:30 am
Tue, Jul 16
61 °FPassing clouds.5 mph94%30.09 "HgN/A
2:00 am61 °FPassing clouds.2 mph88%30.09 "HgN/A
1:30 am59 °FPartly cloudy.1 mph94%30.09 "HgN/A
1:00 am61 °FPassing clouds.2 mph88%30.12 "Hg6 mi
12:30 am61 °FPassing clouds.3 mph88%30.12 "HgN/A
12:00 am61 °FPassing clouds.3 mph88%30.12 "HgN/A
11:30 pm
Mon, Jul 15
61 °FPassing clouds.5 mph88%30.12 "HgN/A
11:00 pm61 °FPassing clouds.6 mph88%30.12 "HgN/A
10:30 pm61 °FSprinkles. Passing clouds.3 mph88%30.12 "HgN/A
10:00 pm63 °FPassing clouds.5 mph83%30.12 "HgN/A
9:30 pm63 °FPartly sunny.8 mph83%30.12 "HgN/A
9:00 pm63 °FBroken clouds.3 mph83%30.09 "HgN/A
8:30 pm63 °FPartly sunny.2 mph83%30.09 "HgN/A
8:00 pm64 °FBroken clouds.7 mph83%30.09 "HgN/A
7:30 pm64 °FSprinkles. Partly sunny.6 mph83%30.09 "HgN/A
7:00 pm64 °FPartly sunny.10 mph78%30.09 "HgN/A
6:30 pm68 °FPartly sunny.8 mph69%30.09 "HgN/A
6:00 pm70 °FPartly sunny.15 mph60%30.07 "HgN/A
5:30 pm72 °FPartly sunny.15 mph57%30.07 "HgN/A
5:00 pm73 °FBroken clouds.14 mph53%30.09 "HgN/A
4:30 pm75 °FBroken clouds.14 mph47%30.09 "HgN/A
4:00 pm73 °FBroken clouds.15 mph50%30.09 "HgN/A
3:30 pm73 °FBroken clouds.14 mph50%30.09 "HgN/A
3:00 pm73 °FBroken clouds.12 mph50%30.09 "HgN/A
2:30 pm73 °FBroken clouds.13 mph50%30.09 "HgN/A
2:00 pm72 °FPartly sunny.10 mph57%30.12 "HgN/A
1:30 pm72 °FPartly sunny.9 mph57%30.12 "HgN/A
1:00 pm70 °FBroken clouds.3 mph60%30.12 "HgN/A
12:30 pm70 °FPartly sunny.6 mph60%30.12 "HgN/A
12:00 pm70 °FPartly sunny.7 mph60%30.12 "HgN/A
11:30 am68 °FPartly sunny.8 mph64%30.12 "HgN/A
11:00 am66 °FBroken clouds.7 mph68%30.15 "HgN/A
10:30 am64 °FBroken clouds.7 mph73%30.15 "HgN/A
10:00 am63 °FPartly sunny.6 mph83%30.15 "HgN/A
9:30 am63 °FPartly sunny.6 mph77%30.15 "HgN/A
9:00 am63 °FPartly sunny.6 mph77%30.15 "HgN/A
8:30 am61 °FPartly sunny.8 mph83%30.15 "HgN/A
8:00 am61 °FPartly sunny.9 mph83%30.15 "HgN/A
7:30 am61 °FPartly sunny.7 mph83%30.15 "HgN/A
7:00 am59 °FPartly sunny.6 mph88%30.15 "HgN/A
6:30 am59 °FPartly sunny.5 mph88%30.15 "HgN/A
6:00 am59 °FPartly sunny.5 mph88%30.15 "HgN/A
5:30 am57 °FPartly sunny.5 mph94%30.15 "HgN/A
5:00 am57 °FPassing clouds.6 mph94%30.15 "HgN/A
4:30 am59 °FPassing clouds.5 mph88%30.15 "HgN/A
4:00 am57 °FPassing clouds.3 mph94%30.15 "HgN/A
3:30 am59 °FPassing clouds.5 mph88%30.15 "HgN/A
3:00 am59 °FPartly cloudy.7 mph88%30.18 "HgN/A
Weather by CustomWeather, © 2019

See weather overview

LIVE PARTIAL LUNAR ECLIPSE – Watch the eclipse as it happens